Soldotna, AK

5:14 PM AKST on January 22, 2018 (GMT -0900)
Soldotna

Weather History for PASX - September, 2012

Change the Weather History Date:

Tuesday, September 4, 2012

  Actual Average Record
Temperature  
Mean Temperature 46 °F -  
Max Temperature 51 °F 57 °F 70 °F (1963)
Min Temperature 42 °F 42 °F 28 °F (1982)
Degree Days  
Heating Degree Days 18    
Moisture  
Dew Point 42 °F    
Average Humidity 83    
Maximum Humidity 100    
Minimum Humidity 66    
Precipitation  
Precipitation 0.00 in - - ()
Sea Level Pressure  
Sea Level Pressure 29.79 in    
Wind  
Wind Speed 7 mph (SE)    
Max Wind Speed 15 mph    
Max Gust Speed 22 mph    
Visibility 10 miles    
Events      
Averages and records for this station are not official NWS values.
T = Trace of Precipitation, MM = Missing Value Source: NWS Daily Summary

Daily Weather History Graph

Daily Weather History Graph

Search for Another Location

Airport or City:

Trip Planner

Search our weather history database for the weather conditions in past years. The results will help you decide how hot, cold, wet, or windy it might be!

Date:

Astronomy

Sep. 04, 2012 Rise Set
Actual Time 7:06 AM AKDT 8:57 PM AKDT
Civil Twilight 6:21 AM AKDT 9:41 PM AKDT
Nautical Twilight 5:24 AM AKDT 10:39 PM AKDT
Astronomical Twilight 4:11 AM AKDT 11:49 PM AKDT
Moon 9:24 PM AKDT (9/4) 12:51 PM AKDT (9/4)
Length of Visible Light 15h 20m
Length of Day
13h 50m
Waning Gibbous, 82% of the Moon is Illuminated
Sep 4
Waning Gibbous
Sep 8
Last Quarter
Sep 15
New
Sep 22
First Quarter
Sep 29
Full

Hourly Weather History & Observations

Time (AKDT) Temp. Windchill Dew Point Humidity Pressure Visibility Wind Dir Wind Speed Gust Speed Precip Events Conditions
12:16 AM 50.0 °F - 41.0 °F 71% 29.76 in 10.0 mi SSW 10.4 mph 20.7 mph N/A   Clear
12:36 AM 50.0 °F - 39.2 °F 66% 29.77 in 10.0 mi South 8.1 mph - N/A   Clear
12:56 AM 50.0 °F - 41.0 °F 71% 29.78 in 10.0 mi SSW 10.4 mph - N/A   Partly Cloudy
1:16 AM 50.0 °F - 41.0 °F 71% 29.79 in 10.0 mi SSW 10.4 mph - N/A   Mostly Cloudy
1:36 AM 50.0 °F - 41.0 °F 71% 29.79 in 10.0 mi South 11.5 mph 21.9 mph N/A   Overcast
1:56 AM 50.0 °F - 41.0 °F 71% 29.80 in 10.0 mi South 13.8 mph 18.4 mph N/A   Scattered Clouds
2:16 AM 48.2 °F - 39.2 °F 71% 29.81 in 10.0 mi South 10.4 mph 18.4 mph N/A   Clear
2:36 AM 48.2 °F - 39.2 °F 71% 29.82 in 10.0 mi South 10.4 mph - N/A   Clear
2:56 AM 48.2 °F - 39.2 °F 71% 29.83 in 10.0 mi SE 10.4 mph - N/A   Clear
3:16 AM 48.2 °F - 39.2 °F 71% 29.84 in 10.0 mi South 8.1 mph - N/A   Clear
3:36 AM 48.2 °F - 39.2 °F 71% 29.85 in 10.0 mi South 6.9 mph - N/A   Clear
3:56 AM 48.2 °F - 39.2 °F 71% 29.85 in 10.0 mi South 6.9 mph - N/A   Clear
4:16 AM 48.2 °F - 39.2 °F 71% 29.86 in 10.0 mi South 12.7 mph 18.4 mph N/A   Clear
4:36 AM 48.2 °F - 39.2 °F 71% 29.87 in 10.0 mi South 9.2 mph - N/A   Clear
4:56 AM 48.2 °F - 39.2 °F 71% 29.87 in 10.0 mi SSW 9.2 mph - N/A   Clear
5:16 AM 48.2 °F - 39.2 °F 71% 29.86 in 10.0 mi SW 5.8 mph - N/A   Clear
5:36 AM 48.2 °F - 39.2 °F 71% 29.87 in 10.0 mi SSW 4.6 mph - N/A   Clear
5:56 AM 46.4 °F 45.2 °F 39.2 °F 76% 29.88 in 10.0 mi SE 3.5 mph - N/A   Clear
6:16 AM 42.8 °F 38.0 °F 39.2 °F 87% 29.88 in 10.0 mi ESE 8.1 mph - N/A   Clear
6:36 AM 42.8 °F 40.1 °F 37.4 °F 81% 29.88 in 10.0 mi SE 4.6 mph - N/A   Clear
6:56 AM 42.8 °F - 39.2 °F 87% 29.89 in 10.0 mi Calm Calm - N/A   Clear
7:16 AM 42.8 °F - 39.2 °F 87% 29.89 in 10.0 mi Calm Calm - N/A   Clear
7:36 AM 42.8 °F - 39.2 °F 87% 29.90 in 10.0 mi Calm Calm - N/A   Clear
7:56 AM 42.8 °F - 39.2 °F 87% 29.90 in 10.0 mi Calm Calm - N/A   Clear
8:16 AM 42.8 °F - 39.2 °F 87% 29.90 in 10.0 mi Calm Calm - N/A   Clear
8:36 AM 42.8 °F - 39.2 °F 87% 29.91 in 10.0 mi Calm Calm - N/A   Partly Cloudy
8:56 AM 42.8 °F 41.1 °F 39.2 °F 87% 29.89 in 10.0 mi East 3.5 mph - N/A   Clear
9:16 AM 44.6 °F - 39.2 °F 81% 29.90 in 10.0 mi Calm Calm - N/A   Partly Cloudy
9:36 AM 44.6 °F - 41.0 °F 87% 29.90 in 10.0 mi Calm Calm - N/A   Partly Cloudy
9:56 AM 44.6 °F - 41.0 °F 87% 29.89 in 10.0 mi Calm Calm - N/A   Mostly Cloudy
10:16 AM 44.6 °F 41.4 °F 42.8 °F 93% 29.89 in 10.0 mi East 5.8 mph - N/A   Overcast
10:36 AM 46.4 °F 45.2 °F 42.8 °F 87% 29.90 in 10.0 mi ESE 3.5 mph - N/A   Overcast
10:56 AM 46.4 °F - 42.8 °F 87% 29.91 in 10.0 mi Calm Calm - N/A   Overcast
11:16 AM 48.2 °F - 42.8 °F 82% 29.92 in 10.0 mi Calm Calm - N/A   Overcast
11:36 AM 48.2 °F - 42.8 °F 82% 29.90 in 10.0 mi East 8.1 mph - N/A   Overcast
11:56 AM 48.2 °F - 44.6 °F 87% 29.89 in 10.0 mi East 3.5 mph - N/A   Overcast
12:16 PM 50.0 °F - 44.6 °F 82% 29.89 in 10.0 mi SSE 4.6 mph - N/A   Overcast
12:36 PM 50.0 °F - 42.8 °F 76% 29.88 in 10.0 mi ESE 5.8 mph - N/A   Overcast
12:56 PM 50.0 °F - 44.6 °F 82% 29.87 in 10.0 mi East 6.9 mph - N/A   Overcast
1:16 PM 51.8 °F - 42.8 °F 71% 29.89 in 10.0 mi SSE 3.5 mph - N/A   Overcast
1:36 PM 51.8 °F - 44.6 °F 76% 29.90 in 9.0 mi SSW 6.9 mph - N/A   Overcast
1:56 PM 50.0 °F - 44.6 °F 82% 29.90 in 6.0 mi South 4.6 mph - N/A   Overcast
2:16 PM 48.2 °F - 44.6 °F 87% 29.90 in 5.0 mi Calm Calm - N/A   Overcast
2:36 PM 48.2 °F - 44.6 °F 87% 29.89 in 4.0 mi Calm Calm - N/A   Overcast
2:56 PM 48.2 °F - 46.4 °F 93% 29.86 in 9.0 mi NE 6.9 mph - N/A   Overcast
3:16 PM 48.2 °F - 44.6 °F 87% 29.85 in 7.0 mi East 4.6 mph - N/A   Overcast
3:36 PM 48.2 °F - 46.4 °F 93% 29.82 in 10.0 mi ENE 6.9 mph - N/A   Overcast
3:56 PM 48.2 °F - 44.6 °F 87% 29.79 in 10.0 mi ENE 6.9 mph - N/A   Overcast
4:16 PM 48.2 °F - 44.6 °F 87% 29.76 in 10.0 mi East 5.8 mph - N/A   Overcast
4:36 PM 48.2 °F - 44.6 °F 87% 29.74 in 10.0 mi Calm Calm - N/A   Overcast
4:56 PM 48.2 °F - 44.6 °F 87% 29.74 in 10.0 mi WNW 5.8 mph - N/A   Overcast
5:16 PM 48.2 °F - 46.4 °F 93% 29.75 in 10.0 mi West 5.8 mph - N/A   Overcast
5:36 PM 48.2 °F - 44.6 °F 87% 29.73 in 9.0 mi NNE 3.5 mph - N/A   Overcast
5:56 PM 48.2 °F - 46.4 °F 93% 29.74 in 9.0 mi Calm Calm - N/A   Overcast
6:16 PM 48.2 °F - 44.6 °F 87% 29.70 in 8.0 mi East 8.1 mph - N/A   Overcast
6:36 PM 48.2 °F - 44.6 °F 87% 29.66 in 9.0 mi NNE 4.6 mph - N/A   Overcast
6:56 PM 48.2 °F - 44.6 °F 87% 29.67 in 9.0 mi West 5.8 mph - N/A   Overcast
7:16 PM 46.4 °F 42.9 °F 46.4 °F 100% 29.68 in 8.0 mi NW 6.9 mph - N/A   Overcast
7:36 PM 46.4 °F 45.2 °F 44.6 °F 93% 29.67 in 9.0 mi WNW 3.5 mph - N/A   Overcast
7:56 PM 46.4 °F 44.3 °F 44.6 °F 93% 29.65 in 8.0 mi ESE 4.6 mph - N/A   Overcast
8:16 PM 48.2 °F - 44.6 °F 87% 29.63 in 7.0 mi ESE 10.4 mph - N/A   Overcast
8:36 PM 48.2 °F - 44.6 °F 87% 29.61 in 7.0 mi ESE 15.0 mph 21.9 mph N/A   Overcast
8:56 PM 48.2 °F - 44.6 °F 87% 29.59 in 10.0 mi ESE 9.2 mph 19.6 mph N/A   Overcast
9:16 PM 48.2 °F - 44.6 °F 87% 29.57 in 10.0 mi Calm Calm - N/A   Overcast
9:36 PM 48.2 °F - 44.6 °F 87% 29.57 in 10.0 mi Calm Calm - N/A   Overcast
9:56 PM 46.4 °F 42.4 °F 44.6 °F 93% 29.58 in 10.0 mi NW 8.1 mph - N/A   Overcast
10:16 PM 46.4 °F 45.2 °F 44.6 °F 93% 29.57 in 10.0 mi NW 3.5 mph - N/A   Overcast
10:36 PM 46.4 °F - 44.6 °F 93% 29.55 in 10.0 mi Calm Calm - N/A   Overcast
10:56 PM 46.4 °F - 44.6 °F 93% 29.54 in 10.0 mi Calm Calm - N/A   Overcast
11:16 PM 48.2 °F - 44.6 °F 87% 29.55 in 10.0 mi Calm Calm - N/A   Overcast
11:36 PM 48.2 °F - 42.8 °F 82% 29.55 in 10.0 mi East 5.8 mph - N/A   Overcast
11:56 PM 48.2 °F - 42.8 °F 82% 29.55 in 10.0 mi East 8.1 mph - N/A   Overcast